map of MPL home
MPL - Airport
Location
City:  Montpellier, Languedoc-Roussillon, France
Name:Montpellier-Méditerranée Airport
Old (Alt.):Frejorgues Airport
ICAO:LFMT
IATA:MPL

Details
Type:Airport (Aerodrome, Airfield)
Use:Public/Civil, International (customs port of entry)
Latitude:43°35'00"N (43.583333)
Longitude:3°57'41"E (3.961389)
Elevation:17 ft (5 m)
Variation:1.34°E (WMM2015 magnetic declination)
0.12° annual change
Runways:2
Longest:8530 × 164 ft (2600 × 50 m), paved

Time
Time Zone:UTC+1 (DST+2)
Local Time:

Weather
METAR:LFMT 192000Z AUTO 26005KT CAVOK 24/17 Q1019 TEMPO 18010KT
TAF:LFMT 191400Z 1915/2015 18010KT CAVOK
BECMG 1921/1924 VRB03KT
BECMG 2002/2004 BKN008
TEMPO 2003/2007 3000 BR BKN010
BECMG 2007/2009 CAVOK
BECMG 2010/2012 18010KT

Related Locations
Nearby:
Farthest:CHT: 12409 mi / 19970 km
Waitangi [Tuuta], CIT, NZ

Find:

   beyond  
but within

Other Information
Maps:
NOTAMs:
Links:
Sources:

  
  • flag of France
  • flag of Languedoc-Roussillon
  

Sectional Chart

Flight Planning
at skyvector.com

Satellite Image

Google Maps Satellite view

 

Copyright © 2004-2018 Karl L. Swartz. All rights reserved.
The Great Circle Mapper name and logo are trademarks of the Great Circle Mapper.
All other trademarks mentioned herein belong to their respective owners.
Please see credits for attibutions and further copyright information.

  Follow gcmap on Facebook Follow gcmap on Twitter Follow gcmap on Google+ GCmap on LinkedIn

hCard Microformat

Geo Microformat